User: anonymous   Login
Location: Caltech
(34.1382°N, 118.1253°W)
Time: 07:02:12
(UTC-07:00)
Language:

Iridium 95 - Orbit

View from above orbital plane
View from above orbital plane
View from above satellite
View from above satellite

Ground track
Ground track

The orbit data is extracted from the following two-line orbital elements,

1 27375U 02005D   14304.45943468  .00000295  00000-0  98416-4 0  4999
2 27375 086.3963 328.6562 0002161 107.0865 253.0567 14.34215305673350
Epoch (UTC): 31 October 2014 11:01:35
Eccentricity: 0.0002161
inclination: 86.3963°
perigee height: 776 km
apogee height: 779 km
right ascension of ascending node: 328.6562°
argument of perigee: 107.0865°
revolutions per day: 14.34215305
mean anomaly at epoch: 253.0567°
orbit number at epoch: 67335

The dashed part of the orbit path shows where the satellite is in the earth's shadow,  

DLR